Regional Weather Roundup
Issued by NWS

Home | Current Version | Previous Version | Graphics & Text | Print | Product List | Glossary On
Versions: 1 2 3 4 5 6 7 8 9 10 11 12 13 14 15 16 17 18 19 20 21 22 23 24 25 26 27 28 29 30 31 32 33 34 35 36 37 38 39 40 41 42 43 44 45 46 47 48 49 50
000
ASUS45 KBOI 170810
RWRID
WEATHER ROUNDUP FOR IDAHO
NATIONAL WEATHER SERVICE BOISE ID
200 AM MDT WED SEP 17 2014

NOTE: "FAIR" INDICATES FEW OR NO CLOUDS BELOW 12000 FEET
WITH NO SIGNIFICANT WEATHER AND/OR OBSTRUCTIONS TO VISIBILITY

IDZ012-014-170900-
SOUTHWEST IDAHO


CITY           SKY/WX    TMP DP  RH WIND       PRES   REMARKS
BOISE          CLOUDY    71  45  39 E6        29.82S
CALDWELL       CLOUDY    63  46  55 SE5       29.82S
MOUNTAIN HOME  PTCLDY    65  39  38 E1        29.84S
$$

IDZ016-017-170900-
SOUTHCENTRAL IDAHO


CITY           SKY/WX    TMP DP  RH WIND       PRES   REMARKS
BURLEY         PTCLDY    57  48  72 CALM      29.93S
JEROME         PTCLDY    65  42  43 N9        29.93S
TWIN FALLS     PTCLDY    67  41  38 W6        29.93R
$$

IDZ019>023-170900-
SOUTHEAST IDAHO


CITY           SKY/WX    TMP DP  RH WIND       PRES   REMARKS
IDAHO FALLS    CLEAR     52  45  77 N3        30.01S
POCATELLO      CLEAR     58  44  60 NE3       29.98S
REXBURG        CLEAR     54  43  66 E3        30.03R
$$

IDZ006-010-011-018-031-032-170900-
CENTRAL IDAHO MOUNTAINS


CITY           SKY/WX    TMP DP  RH WIND       PRES   REMARKS
MCCALL         MOCLDY    54  42  64 CALM      29.98S
HAILEY         CLEAR     55  37  50 NW10      30.07R
STANLEY          N/A     42  33  70 S3        30.14S
SALMON         CLEAR     48  41  76 SW3       30.00R
CHALLIS        CLEAR     55  42  61 SE3       30.04S
$$

IDZ002-004-006-007-026-170900-
NORTHERN IDAHO


CITY           SKY/WX    TMP DP  RH WIND       PRES   REMARKS
LEWISTON       PTCLDY    66  35  31 CALM      29.80S
LOWELL           N/A     57  54  89 CALM      29.86R
COEUR D`ALENE  PTCLDY    54  43  66 E5        29.85S
MULLAN PASS    PTCLDY    62  37  39 S5        30.05F
$$


USA.gov is the U.S. government's official web portal to all federal, state and local government web resources and services.